Tracking 31027 objects as of 19-Jul-2025
HD Live streaming from Space Station
objects crossing your sky now

COSMOS 623

Track COSMOS 623 now!
10-day predictions
COSMOS 623 is classified as:


NORAD ID: 6991
Int'l Code: 1973-104G
Perigee: 1,393.4 km
Apogee: 1,492.0 km
Inclination: 74.0 °
Period: 114.6 minutes
Semi major axis: 7813 km
RCS: 0.6745 m2 (medium)
Launch date: December 19, 1973
Source: Commonwealth of Independent States (former USSR) (CIS)
Launch site: PLESETSK MISSILE AND SPACE COMPLEX (PKMTR)
Your satellite tracking list
FLOCK 4X 28
Track 1 satellite(s)




NASA's NSSDC Master Catalog

Two Line Element Set (TLE):
1 06991U 73104G   25199.19489226 -.00000028  00000-0 -66446-4 0  9999
2 06991  74.0292  86.3556 0063142 228.3505 253.2080 12.56950674366702
Source of the keplerian elements: AFSPC